Location: ???? ?????
(30.0052°N, 31.2891°E)
Time: 12:04:03
(UTC+00:00)

CZ-3 R/B - Visible Passes

Search period start: 26 September 2022 00:00
Search period end: 06 October 2022 00:00
Orbit: 435 x 10156 km, 28.3° (Epoch: 25 September)

Date Brightness Start Highest point End Pass type
(mag) Time Alt. Az. Time Alt. Az. Time Alt. Az.
26 Sep 6.1 19:25:19 10° SSW 20:55:23 10° ESE 20:04:33 22° SSE visible
27 Sep 4.6 00:24:38 46° SSW 00:32:43 53° SSE 00:45:31 10° E visible
27 Sep 5.9 19:51:45 10° SSW 21:19:51 17° ESE 21:24:19 10° ESE visible
28 Sep 4.3 00:49:06 43° SW 00:59:53 59° SSE 01:11:17 10° E visible
28 Sep 5.7 20:18:49 10° SSW 21:44:18 24° ESE 21:52:23 10° E visible
29 Sep 4.0 01:13:33 39° SW 01:26:47 65° SSE 01:36:57 10° E visible
29 Sep 5.5 20:46:25 10° SSW 22:08:44 32° ESE 22:19:40 10° E visible
30 Sep 3.7 01:37:58 33° WSW 01:53:26 70° SSE 02:02:30 10° E visible
30 Sep 6.8 17:25:09 10° SSE 17:59:57 14° SE 18:11:13 13° SE visible
30 Sep 5.3 21:14:34 10° SSW 22:33:07 40° SE 22:46:27 10° E visible
01 Oct 3.4 02:02:21 27° WSW 02:19:54 75° S 02:28:01 10° E visible
01 Oct 6.8 17:45:10 10° S 18:33:42 18° SE 18:35:14 18° SE visible
01 Oct 5.1 21:43:18 10° SW 22:57:30 49° SE 23:12:50 10° E visible
02 Oct 3.2 02:26:44 20° WSW 02:46:12 79° S 02:53:28 10° E visible
02 Oct 6.3 18:08:35 10° S 19:52:38 - E 18:59:16 23° SSE visible
02 Oct 5.0 22:12:41 10° SW 23:21:50 56° SSE 23:38:57 10° E visible
03 Oct 2.9 02:51:04 14° W 03:12:22 82° S 03:18:54 10° E visible
03 Oct 6.2 18:33:24 10° SSW 20:16:57 - E 19:23:19 28° SSE visible
03 Oct 4.8 22:42:44 10° SW 23:48:33 62° SSE 00:04:53 10° E visible
04 Oct 2.7 03:16:50 10° W 03:38:25 82° S 03:44:17 10° E visible
04 Oct 6.0 18:59:03 10° SSW 20:41:15 13° E 20:43:09 10° E visible
04 Oct 4.5 23:13:31 10° SW 00:16:05 68° SSE 00:30:40 10° E visible
05 Oct 5.8 19:25:19 10° SSW 21:05:32 20° E 21:11:04 10° E visible
